Miscellaneous Local Product
Issued by NWS Hastings, NE

Home | Current Version | Previous Version | Graphics & Text | Print | Product List | Glossary On
Versions: 1 2 3 4 5 6 7 8 9 10 11 12 13 14 15 16 17 18 19 20 21 22 23 24 25 26 27 28 29 30 31 32 33 34 35 36 37 38 39 40 41 42 43 44 45 46 47 48 49 50
000
AXUS43 KGID 282002
MISGRI

GID CWA HOURLY WEATHER ROUNDUP
NATIONAL WEATHER SERVICE HASTINGS NE
300 PM CDT SAT MAY 28 2016

NOTE: "FAIR" INDICATES FEW OR NO CLOUDS BELOW 12,000 FEET WITH NO
SIGNIFICANT WEATHER AND/OR OBSTRUCTIONS TO VISIBILITY.

...SOUTH CENTRAL NEBRASKA...

CITY           SKY/WX    TMP DP  RH WIND       PRES   REMARKS
GRAND ISLAND   MOSUNNY   71  54  54 NW21G29   29.88R
HASTINGS       PTSUNNY   74  52  46 W17G26    29.89R
KEARNEY        MOSUNNY   73  50  43 W14G21    29.91R
ORD            MOSUNNY   72  53  51 NW16G25   29.86S
YORK           MOSUNNY   72  57  60 NW16      29.86R
AURORA         CLOUDY    70  58  63 NW10      29.87R
LEXINGTON      PTSUNNY   71  55  57 W7        29.91F
HOLDREGE       MOSUNNY   71  52  51 NW9G16    29.91S
HEBRON         MOSUNNY   73  57  56 W13       29.87S

...NEBRASKA PANHANDLE...

CITY           SKY/WX    TMP DP  RH WIND       PRES   REMARKS
CHADRON        CLOUDY    68  47  46 W3        29.91F
ALLIANCE       MOSUNNY   72  48  42 VRB5      29.93F
SCOTTSBLUFF    MOSUNNY   73  40  30 VRB3      29.93F
SIDNEY         MOSUNNY   70  45  40 VRB5      29.98F

...WESTERN AND NORTH CENTRAL NEBRASKA...

CITY           SKY/WX    TMP DP  RH WIND       PRES   REMARKS
VALENTINE      CLOUDY    71  47  42 W8        29.89S
AINSWORTH      MOSUNNY   71  49  45 NW8G18    29.89S
ONEILL         CLOUDY    68  56  66 NW14      29.85S
BROKEN BOW     MOSUNNY   71  52  50 NW9       29.89F
IMPERIAL       MOSUNNY   71  47  42 W9G18     29.96F
NORTH PLATTE   MOSUNNY   71  52  50 W8        29.92F
MCCOOK         MOSUNNY   75  51  43 NW9       29.94S

...EASTERN NEBRASKA...

CITY           SKY/WX    TMP DP  RH WIND       PRES   REMARKS
NORFOLK        LGT RAIN  67  56  67 W20G26    29.81R
SO SIOUX CITY  PTSUNNY   71  58  63 S5        29.73S
TEKAMAH        PTSUNNY   70  58  65 W28G39    29.75S
COLUMBUS       MOSUNNY   68  54  60 W16G23    29.85R
ALBION         PTSUNNY   65  56  71 NW14      29.86R
OMAHA EPPLEY   CLOUDY    71  59  65 SW15G22   29.80R
OFFUTT AFB     PTSUNNY   70  59  68 SW16      29.81R
MILLARD        PTSUNNY   68  61  78 W12       29.81R
LINCOLN        MOSUNNY   75  57  53 W14G21    29.84S
NEBRASKA CITY  MOSUNNY   72  57  59 W17G26    29.84R
BEATRICE       PTSUNNY   74  58  57 W16G22    29.85S
FALLS CITY     MOSUNNY   75  59  57 W15G23    29.85S

...NORTHERN KANSAS...

CITY           SKY/WX    TMP DP  RH WIND       PRES   REMARKS
GOODLAND       MOSUNNY   74  48  39 W7        29.99S
HILL CITY      MOSUNNY   77  50  38 W6        29.95S
NORTON         PTCLDY    73  45  35 W12       29.93S
PHILLIPSBURG   MOSUNNY   75  54  46 W10       29.92F
SMITH CENTER   MOSUNNY   73  55  53 W10       29.92S
BELOIT         SUNNY     73  55  53 W10       29.91R
HAYS           SUNNY     73  54  49 W13       29.95S
RUSSELL        SUNNY     74  57  55 NW12G17   29.93S
CONCORDIA      MOSUNNY   75  56  51 W12       29.90S
SALINA         MOSUNNY   78  57  48 NW7       29.92S
TOPEKA         SUNNY     75  59  57 W7G17     29.90R



USA.gov is the U.S. government's official web portal to all federal, state and local government web resources and services.